Weather History for KBUF - November, 2014

Change the Weather History Date:

Wednesday, November 19, 2014

  Actual Average Record
Temperature  
Mean Temperature 23 °F 40 °F  
Max Temperature 31 °F 46 °F 70 °F (1985)
Min Temperature 14 °F 33 °F 12 °F (1880)
Degree Days  
Heating Degree Days 42 25  
Month to date heating degree days 492 424  
Since 1 July heating degree days 981 1029  
Cooling Degree Days 0 0  
Month to date cooling degree days 0 0  
Year to date cooling degree days 516 544  
Moisture  
Dew Point 16 °F    
Average Humidity 71    
Maximum Humidity 88    
Minimum Humidity 54    
Precipitation  
Precipitation 0.51 in 0.14 in 1.49 in (2009)
Month to date precipitation 1.66 2.55  
Year to date precipitation 39.33 35.13  
Snow  
Snow 7.60 in 0.30 in 5.80 in (2000)
Month to date snowfall 12.6 3.7  
Since 1 July snowfall 12.6 4.6  
Since 1 September snowfall 12.6 4.6  
Snow Depth 6.00 in    
Sea Level Pressure  
Sea Level Pressure 29.94 in    
Wind  
Wind Speed 16 mph (SSW)    
Max Wind Speed 28 mph    
Max Gust Speed 36 mph    
Visibility 4 miles    
Events Fog , Snow , Thunderstorm    
T = Trace of Precipitation, MM = Missing Value Source: NWS Daily Summary

Daily Weather History Graph

Daily Weather History Graph

Search for Another Location

Airport or City:

Trip Planner

Search our weather history database for the weather conditions in past years. The results will help you decide how hot, cold, wet, or windy it might be!

Date:

Astronomy

Nov. 19, 2014 Rise Set
Actual Time 7:12 AM EST 4:48 PM EST
Civil Twilight 6:41 AM EST 5:18 PM EST
Nautical Twilight 6:06 AM EST 5:53 PM EST
Astronomical Twilight 5:33 AM EST 6:27 PM EST
Moon 4:01 AM EST (11/19) 3:18 PM EST (11/19)
Length of Visible Light 10h 37m
Length of Day
9h 35m
Waning Crescent, 9% of the Moon is Illuminated
Nov 19
Waning Crescent
Nov 22
New
Nov 29
First Quarter
Dec 6
Full
Dec 14
Last Quarter

Hourly Weather History & Observations

Time (EST) Temp. Windchill Dew Point Humidity Pressure Visibility Wind Dir Wind Speed Gust Speed Precip Events Conditions
12:54 AM 19.9 °F 5.2 °F 9.0 °F 62% 30.06 in 10.0 mi West 17.3 mph 24.2 mph 0.00 in Snow Light Snow
1:54 AM 19.9 °F 5.7 °F 8.1 °F 60% 30.07 in 10.0 mi West 16.1 mph 26.5 mph 0.00 in   Partly Cloudy
2:54 AM 17.1 °F 2.0 °F 12.9 °F 84% 30.10 in 9.0 mi SSW 16.1 mph 26.5 mph 0.00 in Snow Light Snow
3:54 AM 17.1 °F 2.5 °F 12.9 °F 84% 30.11 in 4.0 mi SSW 15.0 mph - 0.00 in Snow Light Snow
4:18 AM 17.1 °F 3.0 °F 12.9 °F 84% 30.07 in 2.0 mi SSW 13.8 mph - 0.00 in Snow Light Snow
4:42 AM 17.1 °F 3.6 °F 12.9 °F 84% 30.07 in 1.5 mi SSW 12.7 mph - 0.00 in Snow Light Snow
4:49 AM 17.6 °F 5.0 °F 12.2 °F 79% 30.07 in 0.5 mi SSW 11.5 mph - 0.00 in Fog , Snow Snow
4:54 AM 16.0 °F 1.7 °F 12.9 °F 88% 30.11 in 0.5 mi SSW 13.8 mph - 0.00 in Fog , Snow Snow
5:10 AM 16.0 °F 2.9 °F 12.9 °F 88% 30.06 in 1.0 mi SSW 11.5 mph - 0.00 in Snow Light Snow
5:30 AM 16.0 °F 2.9 °F 12.9 °F 88% 30.06 in 1.0 mi SSW 11.5 mph - 0.01 in Snow Light Snow
5:52 AM 15.8 °F 1.4 °F 12.2 °F 86% 30.06 in 1.8 mi SSW 13.8 mph - 0.01 in Snow Light Snow
5:54 AM 16.0 °F 1.7 °F 12.9 °F 88% 30.11 in 1.8 mi SSW 13.8 mph - 0.01 in Snow Light Snow
6:29 AM 16.0 °F 2.3 °F 12.0 °F 84% 30.07 in 0.5 mi SSW 12.7 mph 23.0 mph 0.00 in Fog , Snow Snow
6:43 AM 15.1 °F -1.1 °F 12.0 °F 88% 30.08 in 0.1 mi SSW 17.3 mph - 0.01 in Fog , Snow Heavy Snow
6:51 AM 14.0 °F -2.0 °F 10.4 °F 86% 30.08 in 0.1 mi South 16.1 mph - 0.01 in Fog , Snow Heavy Snow
6:54 AM 14.0 °F -2.0 °F 10.9 °F 88% 30.13 in 0.1 mi SSW 16.1 mph - 0.02 in Fog , Snow Heavy Snow
7:33 AM 14.0 °F 2.0 °F 10.0 °F 84% 30.09 in 0.2 mi South 9.2 mph - 0.03 in Fog , Snow Heavy Snow
7:45 AM 14.0 °F 1.2 °F 8.1 °F 77% 30.09 in 3.0 mi SSW 10.4 mph - 0.04 in Snow Light Snow
7:52 AM 14.0 °F -0.8 °F 6.8 °F 73% 30.10 in 8.0 mi SSW 13.8 mph - 0.04 in Snow Light Snow
7:54 AM 14.0 °F -0.2 °F 5.0 °F 67% 30.14 in 8.0 mi SSW 12.7 mph - 0.04 in Snow Light Snow
8:54 AM 14.0 °F -2.5 °F 5.0 °F 67% 30.14 in 8.0 mi SSW 17.3 mph - 0.00 in Snow Light Snow
9:54 AM 17.1 °F 2.5 °F 6.1 °F 62% 30.13 in 10.0 mi South 15.0 mph - 0.00 in   Mostly Cloudy
10:54 AM 18.0 °F 3.1 °F 8.1 °F 65% 30.10 in 10.0 mi South 16.1 mph - N/A   Mostly Cloudy
11:54 AM 19.9 °F 4.3 °F 9.0 °F 62% 30.07 in 10.0 mi South 19.6 mph - N/A   Scattered Clouds
12:54 PM 21.0 °F 5.7 °F 9.0 °F 60% 30.03 in 10.0 mi SSW 19.6 mph - N/A   Mostly Cloudy
1:54 PM 23.0 °F 8.3 °F 9.0 °F 55% 29.98 in 10.0 mi South 19.6 mph - N/A   Mostly Cloudy
2:54 PM 23.0 °F 10.1 °F 10.9 °F 60% 29.93 in 10.0 mi South 15.0 mph - N/A   Overcast
3:26 PM 21.9 °F 8.2 °F 14.0 °F 72% 29.88 in 0.5 mi South 16.1 mph - 0.00 in Snow Snow
3:54 PM 21.0 °F 8.6 °F 17.1 °F 85% 29.92 in 0.5 mi South 12.7 mph - 0.00 in Snow Snow
4:26 PM 21.0 °F 10.6 °F 17.1 °F 85% 29.87 in 1.0 mi SSE 9.2 mph - 0.01 in Snow Light Snow
4:54 PM 21.0 °F 10.6 °F 17.1 °F 85% 29.89 in 1.5 mi SSE 9.2 mph - 0.02 in Snow Light Snow
5:11 PM 21.0 °F 9.9 °F 17.1 °F 85% 29.85 in 2.5 mi SSE 10.4 mph - 0.00 in Snow Light Snow
5:26 PM 21.9 °F 10.4 °F 17.1 °F 82% 29.84 in 4.0 mi SSE 11.5 mph - 0.00 in Snow Light Snow
5:35 PM 21.9 °F 9.8 °F 17.1 °F 82% 29.83 in 2.0 mi South 12.7 mph - 0.00 in Snow Light Snow
5:38 PM 23.0 °F 11.1 °F 17.1 °F 78% 29.83 in 4.0 mi South 12.7 mph - 0.00 in Snow Light Snow
5:54 PM 23.0 °F 11.7 °F 17.1 °F 78% 29.86 in 7.0 mi South 11.5 mph 21.9 mph 0.00 in Snow Light Snow
6:54 PM 25.0 °F 13.1 °F 18.0 °F 75% 29.83 in 8.0 mi South 13.8 mph - 0.00 in Snow Light Snow
7:54 PM 28.0 °F 15.7 °F 19.9 °F 72% 29.80 in 9.0 mi SSW 17.3 mph - 0.00 in Snow Light Snow
8:54 PM 30.0 °F 17.5 °F 21.0 °F 69% 29.77 in 9.0 mi SSW 19.6 mph 32.2 mph 0.00 in Snow Light Snow
9:54 PM 30.9 °F 17.2 °F 23.0 °F 72% 29.73 in 5.0 mi SSW 25.3 mph 32.2 mph 0.00 in Snow Light Snow
10:14 PM 30.9 °F 19.1 °F 24.1 °F 76% 29.72 in 2.0 mi SW 18.4 mph 33.4 mph 0.00 in Snow Light Snow
10:16 PM 30.9 °F 18.1 °F 24.1 °F 76% 29.72 in 1.0 mi SW 21.9 mph 33.4 mph 0.00 in Snow Light Snow
10:19 PM 30.0 °F 16.9 °F 25.0 °F 82% 29.72 in 0.5 mi SW 21.9 mph 31.1 mph 0.00 in Snow Snow
10:26 PM 30.0 °F 17.9 °F 27.0 °F 88% 29.73 in 0.1 mi SSW 18.4 mph 31.1 mph 0.01 in Snow Heavy Snow
10:33 PM 30.9 °F 18.4 °F 28.9 °F 92% 29.72 in 0.1 mi SW 20.7 mph 32.2 mph 0.02 in Snow Heavy Snow
10:46 PM 30.9 °F 20.2 °F 30.0 °F 96% 29.72 in 0.1 mi SW 15.0 mph 25.3 mph 0.05 in Snow , Thunderstorm Heavy Thunderstorms and Snow
10:54 PM 30.9 °F 19.8 °F 30.0 °F 96% 29.75 in 0.1 mi SW 16.1 mph 25.3 mph 0.06 in Snow , Thunderstorm Heavy Thunderstorms and Snow
11:08 PM 28.9 °F 15.1 °F 28.0 °F 96% 29.73 in 0.1 mi West 23.0 mph 35.7 mph 0.03 in Snow , Thunderstorm Heavy Thunderstorms and Snow
11:15 PM 28.9 °F 16.5 °F 27.0 °F 92% 29.73 in 0.2 mi West 18.4 mph 35.7 mph 0.13 in Snow , Thunderstorm Heavy Thunderstorms and Snow
11:26 PM 28.9 °F 16.5 °F 26.1 °F 89% 29.74 in 1.0 mi West 18.4 mph 27.6 mph 0.15 in Snow Light Snow
11:36 PM 28.9 °F 16.9 °F 25.0 °F 85% 29.74 in 1.5 mi West 17.3 mph 24.2 mph 0.16 in Snow Light Snow
11:40 PM 28.9 °F 17.7 °F 24.1 °F 82% 29.73 in 4.0 mi West 15.0 mph 24.2 mph 0.16 in Snow Light Snow
11:54 PM 30.0 °F 18.3 °F 21.0 °F 69% 29.76 in 6.0 mi West 17.3 mph 26.5 mph 0.16 in Snow Light Snow